Stations météo

Publicité
Avignon, France (7563): Température de l'air & dewpoint: 25.10.2020 23:00:00 - 31.10.2020 23:00:00 (CET)Avignon, France (7563): Température de l'air 5cm: 25.10.2020 23:00:00 - 31.10.2020 23:00:00 (CET)Avignon, France (7563): Vitesse du vent & gusts: 25.10.2020 23:00:00 - 31.10.2020 23:00:00 (CET)Avignon, France (7563): Direction du vent: 25.10.2020 23:00:00 - 31.10.2020 23:00:00 (CET)Avignon, France (7563): reduced air pressure: 25.10.2020 23:00:00 - 31.10.2020 23:00:00 (CET)Avignon, France (7563): visibility: 25.10.2020 23:00:00 - 31.10.2020 23:00:00 (CET)Avignon, France (7563): Quantités de précipitations: 25.10.2020 23:00:00 - 31.10.2020 23:00:00 (CET)
Date & Time tt [°C] td [°C] tt 5cm [°C] ff [km/h] ff [knt] fx [km/h] fx [knt] dd ppp [hPa] vv [km] rr [mm]
31.10.2020 23:00:00 13,9 12,5 13,6 5 3 6 4 SSE 1024,0 7 0,0
31.10.2020 22:00:00 14,1 12,5 13,6 2 1 7 4 S 1024,5 8 0,0
31.10.2020 21:00:00 14,1 12,5 13,5 3 1 6 3 SE 1024,2 8 0,0
31.10.2020 20:00:00 13,9 12,5 11,1 5 3 10 6 SE 1024,4 8 0,0
31.10.2020 19:00:00 13,9 11,9 9,6 6 4 14 8 WSW 1023,9 9 0,0
31.10.2020 18:00:00 14,5 11,5 9,5 4 2 14 7 WSW 1023,3 13 0,0
31.10.2020 17:00:00 17,9 13,2 18,0 9 5 16 9 W 1023,5 15 0,0
31.10.2020 16:00:00 19,8 13,5 22,7 8 4 15 8 SW 1023,1 19 0,0
31.10.2020 15:00:00 19,8 13,5 24,5 9 5 17 9 WSW 1023,5 19 0,0
31.10.2020 14:00:00 19,4 13,1 24,2 6 4 17 9 WNW 1024,0 17 0,0
31.10.2020 13:00:00 18,8 12,3 24,3 6 3 18 10 SW 1024,6 20 0,0
31.10.2020 12:00:00 17,9 11,9 21,5 5 3 14 7 SSE 1025,2 20 0,0
31.10.2020 11:00:00 15,5 11,1 16,1 3 2 9 5 WNW 1025,8 20 0,0
31.10.2020 10:00:00 12,4 10,3 11,1 4 2 9 5 NNW 1026,0 20 0,0
31.10.2020 09:00:00 10,3 9,8 4,6 2 1 5 3 NNW 1026,2 18 0,0
31.10.2020 08:00:00 6,1 5,8 0,9 0 0 7 4 N 1025,9 19 0,0
31.10.2020 07:00:00 4,6 4,2 1,0 4 2 7 4 ENE 1025,4 1,2 0,0
31.10.2020 06:00:00 5,2 4,8 1,4 2 1 4 2 N 1025,2 0,4 0,0
31.10.2020 05:00:00 5,1 4,7 1,6 3 2 5 3 NNW 1025,0 0,4 0,0
31.10.2020 04:00:00 4,6 3,7 1,7 3 2 5 3 S 1025,0 0,6 0,0
31.10.2020 03:00:00 6,2 5,6 2,2 3 1 5 3 S 1025,3 0,4 0,2
31.10.2020 02:00:00 7,7 7,3 2,5 2 1 8 4 SSE 1025,3 6 0,0
31.10.2020 01:00:00 7,5 6,6 2,9 4 2 8 4 SE 1025,1 17 0,0
31.10.2020 00:00:00 8,1 7,2 3,5 4 2 8 4 ESE 1025,1 36 0,0
30.10.2020 23:00:00 8,0 6,5 4,9 4 2 9 5 SE 1025,1 35 0,0
30.10.2020 22:00:00 9,5 7,8 5,4 6 3 9 5 ENE 1025,1 45 0,0
30.10.2020 21:00:00 10,4 8,7 5,9 4 2 8 4 SSE 1024,7 45 0,0
30.10.2020 20:00:00 10,2 7,8 6,5 4 2 8 5 WSW 1024,4 53 0,0
30.10.2020 19:00:00 13,4 9,4 8,8 0 0 9 5 N 1024,2 60 0,0
30.10.2020 18:00:00 16,8 10,2 12,0 6 3 14 8 WNW 1023,6 60 0,0
30.10.2020 17:00:00 20,1 10,8 18,9 9 5 27 15 WNW 1023,3 60 0,0
30.10.2020 16:00:00 21,3 10,7 21,9 11 6 28 15 NNW 1023,0 60 0,0
30.10.2020 15:00:00 21,6 10,7 22,8 18 10 30 16 NNW 1023,0 60 0,0
30.10.2020 14:00:00 21,4 10,8 23,5 15 8 29 15 NNW 1023,3 60 0,0
30.10.2020 13:00:00 20,1 10,8 21,2 17 9 29 15 NW 1023,8 60 0,0
30.10.2020 12:00:00 20,0 11,2 21,5 16 9 34 18 NNW 1024,3 53 0,0
30.10.2020 11:00:00 18,6 10,7 18,8 19 11 31 17 NNW 1024,6 59 0,0
30.10.2020 10:00:00 17,2 10,6 14,9 22 12 34 18 NNW 1024,5 60 0,0
30.10.2020 09:00:00 13,1 9,7 7,9 5 3 10 5 S 1024,8 41 0,0
30.10.2020 08:00:00 8,6 7,7 4,3 4 2 9 5 SE 1024,5 47 0,0
30.10.2020 07:00:00 8,0 6,6 4,6 2 1 9 5 NE 1024,0 60 0,0
30.10.2020 06:00:00 7,9 6,4 5,4 6 3 10 5 S 1023,9 60 0,0
30.10.2020 05:00:00 10,5 7,0 7,1 6 3 15 8 NW 1024,0 60 0,0
30.10.2020 04:00:00 12,6 8,9 10,6 7 4 29 16 N 1023,9 60 0,0
30.10.2020 03:00:00 13,4 9,3 11,4 26 14 36 19 NNW 1023,8 60 0,0
30.10.2020 02:00:00 12,9 9,2 11,7 19 10 26 14 NW 1023,9 60 0,0
30.10.2020 01:00:00 14,3 9,1 12,9 14 7 33 18 N 1023,9 60 0,0
30.10.2020 00:00:00 14,5 9,1 12,9 20 11 41 22 NW 1023,9 60 0,0
29.10.2020 23:00:00 13,8 9,4 12,1 19 11 29 16 NNW 1024,2 60 0,0
29.10.2020 22:00:00 14,0 9,6 10,0 13 7 23 13 NW 1024,6 60 0,0
29.10.2020 21:00:00 13,5 9,2 10,3 9 5 22 12 NNW 1024,3 60 0,0
29.10.2020 20:00:00 14,6 9,8 11,9 19 10 26 14 NNW 1024,2 60 0,0
29.10.2020 19:00:00 15,0 9,4 12,0 9 5 21 11 NW 1024,3 60 0,0
29.10.2020 18:00:00 17,3 9,5 15,4 14 8 34 18 NW 1023,8 51 0,0
29.10.2020 17:00:00 18,4 9,7 17,8 19 10 46 25 NNW 1023,3 40 0,0
29.10.2020 16:00:00 19,9 9,7 20,8 22 12 41 22 NNW 1022,9 45 0,0
29.10.2020 15:00:00 20,3 9,5 21,9 26 14 42 23 NNW 1023,1 34 0,0
29.10.2020 14:00:00 20,2 9,7 22,2 24 13 45 25 NW 1023,3 34 0,0
29.10.2020 13:00:00 19,9 9,2 21,1 24 13 45 24 NW 1023,4 38 0,0
29.10.2020 12:00:00 19,2 9,7 20,2 30 16 45 24 NW 1023,8 41 0,0
29.10.2020 11:00:00 17,4 10,0 17,5 21 12 35 19 NW 1023,7 43 0,0
29.10.2020 10:00:00 16,2 9,4 14,4 18 10 32 17 NNW 1023,7 36 0,0
29.10.2020 09:00:00 14,5 9,3 10,3 18 10 29 16 NW 1023,7 45 0,0
29.10.2020 08:00:00 10,7 9,3 7,4 8 4 11 6 NNE 1023,2 60 0,0
29.10.2020 07:00:00 9,4 8,3 7,3 3 1 8 5 ENE 1022,9 60 0,0
29.10.2020 06:00:00 8,9 8,0 6,4 2 1 7 4 NE 1022,7 57 0,0
29.10.2020 05:00:00 8,6 8,0 5,7 2 1 5 3 WSW 1022,4 45 0,0
29.10.2020 04:00:00 8,4 7,8 5,3 3 2 9 5 NNW 1022,2 20 0,0
29.10.2020 03:00:00 9,3 9,0 5,7 0 0 7 4 N 1022,3 5 0,0
29.10.2020 02:00:00 8,9 8,4 4,7 2 1 8 4 NNE 1022,7 3,0 0,0
29.10.2020 01:00:00 9,1 8,2 6,1 4 2 9 5 WNW 1022,4 3,2 0,0
29.10.2020 00:00:00 11,0 10,1 7,8 8 4 14 8 NW 1022,1 10 0,0
28.10.2020 23:00:00 9,9 8,8 7,0 3 2 6 4 SSW 1022,5 8 0,0
28.10.2020 22:00:00 10,7 9,3 8,0 3 2 5 3 ESE 1021,5 10 0,0
28.10.2020 21:00:00 11,9 10,0 8,9 3 2 7 4 ESE 1021,1 16 0,0
28.10.2020 20:00:00 13,6 10,6 9,5 5 3 10 6 SSE 1020,9 27 0,0
28.10.2020 19:00:00 15,4 11,6 13,5 3 2 5 3 SE 1020,5 14 0,0
28.10.2020 18:00:00 16,6 11,3 14,5 2 1 9 5 ESE 1019,6 14 0,0
28.10.2020 17:00:00 17,9 11,2 17,4 7 4 13 7 SSE 1019,1 60 0,0
28.10.2020 16:00:00 18,5 10,8 19,1 8 4 18 10 W 1019,1 60 0,0
28.10.2020 15:00:00 19,2 10,2 22,7 8 5 15 8 W 1019,1 48 0,0
28.10.2020 14:00:00 18,7 10,0 20,7 6 3 21 11 NW 1019,0 37 0,0
28.10.2020 13:00:00 17,9 9,0 20,7 5 3 16 9 W 1019,8 34 0,0
28.10.2020 12:00:00 16,6 10,0 18,7 6 3 12 6 WNW 1020,2 14 0,0
28.10.2020 11:00:00 14,3 8,9 14,9 6 3 16 9 N 1020,2 17 0,0
28.10.2020 10:00:00 12,4 7,5 13,5 4 2 9 5 WNW 1019,9 49 0,0
28.10.2020 09:00:00 12,0 7,0 - 4 2 - - - - 10 -
28.10.2020 08:00:00 8,6 7,1 6,1 11 6 15 8 NNW 1019,3 41 0,0
28.10.2020 07:00:00 9,1 6,4 7,4 3 1 12 7 ENE 1018,3 60 0,2
28.10.2020 06:00:00 9,1 6,7 8,7 6 4 12 7 ESE 1018,1 44 0,0
28.10.2020 05:00:00 9,7 6,8 6,7 5 3 12 7 S 1017,7 54 0,2
28.10.2020 04:00:00 9,2 6,5 4,6 9 5 18 10 SSE 1017,2 60 0,0
28.10.2020 03:00:00 6,8 5,7 3,6 4 2 8 4 SE 1016,9 33 0,0
28.10.2020 02:00:00 5,9 4,4 3,4 3 1 7 4 SSE 1017,2 19 0,0
28.10.2020 01:00:00 7,4 5,7 4,6 3 2 9 5 S 1017,0 20 0,0
28.10.2020 00:00:00 7,4 5,7 4,9 4 2 8 4 SSE 1016,9 25 0,0
27.10.2020 23:00:00 8,1 6,4 5,6 2 1 7 4 E 1016,8 42 0,0
27.10.2020 22:00:00 9,0 6,8 7,2 5 3 7 4 SE 1016,2 19 0,0
27.10.2020 21:00:00 8,3 6,1 4,7 3 2 8 5 ESE 1015,7 60 0,0
27.10.2020 20:00:00 7,6 5,2 4,5 6 4 8 4 SSE 1015,5 59 0,0
27.10.2020 19:00:00 9,5 6,2 4,8 3 1 7 4 E 1015,2 60 0,0
27.10.2020 18:00:00 11,6 6,3 7,2 5 3 10 6 E 1014,8 60 0,0
27.10.2020 17:00:00 16,2 7,4 15,7 6 4 17 9 N 1014,1 60 0,0
27.10.2020 16:00:00 17,1 6,9 18,8 10 6 26 14 N 1013,6 41 0,0
27.10.2020 15:00:00 16,7 6,5 18,8 17 9 28 15 WNW 1013,7 60 0,0
27.10.2020 14:00:00 16,8 6,9 19,4 18 10 40 22 NW 1013,9 49 0,0
27.10.2020 13:00:00 15,9 5,2 17,4 21 11 37 20 NNW 1014,6 60 0,0
27.10.2020 12:00:00 15,2 5,9 16,1 19 10 31 17 NW 1015,1 20 0,0
27.10.2020 11:00:00 14,4 6,2 15,8 19 11 29 16 NNW 1015,2 60 0,0
27.10.2020 10:00:00 12,9 6,5 12,3 9 5 17 9 NNW 1015,2 55 0,0
27.10.2020 09:00:00 9,4 6,8 6,2 4 2 8 5 WSW 1014,9 51 0,0
27.10.2020 08:00:00 6,1 5,8 -0,3 0 0 6 4 N 1014,4 52 0,0
27.10.2020 07:00:00 2,8 2,2 -1,0 0 0 9 5 N 1013,9 49 0,0
27.10.2020 06:00:00 3,2 2,5 -0,8 3 2 5 3 W 1013,5 46 0,0
27.10.2020 05:00:00 4,1 3,5 -0,3 0 0 4 2 N 1013,0 54 0,0
27.10.2020 04:00:00 4,2 3,6 0,4 2 1 8 4 WSW 1012,8 49 0,0
27.10.2020 03:00:00 5,2 4,5 0,7 4 2 5 3 N 1012,7 52 0,0
27.10.2020 02:00:00 5,2 4,0 1,2 3 2 8 4 N 1012,8 39 0,0
27.10.2020 01:00:00 7,9 5,9 2,7 6 3 13 7 NNW 1012,8 60 0,0
27.10.2020 00:00:00 8,8 6,1 6,1 9 5 23 12 NW 1012,9 60 0,0
26.10.2020 23:00:00 10,7 6,4 9,2 16 9 26 14 NW 1012,6 60 0,0
26.10.2020 22:00:00 10,8 6,7 7,5 15 8 22 12 WNW 1012,2 60 0,0
26.10.2020 21:00:00 10,9 6,6 9,4 15 8 24 13 NW 1011,3 60 0,0
26.10.2020 20:00:00 11,9 6,8 10,6 15 8 26 14 NW 1011,0 60 0,0
26.10.2020 19:00:00 12,7 6,9 10,9 14 8 25 14 WNW 1010,4 60 0,0
26.10.2020 18:00:00 12,5 6,1 11,0 16 9 31 17 NW 1008,9 60 0,0
26.10.2020 17:00:00 14,5 6,8 13,2 19 11 29 16 NNW 1008,3 47 0,0
26.10.2020 16:00:00 15,7 7,5 17,3 21 12 37 20 NNW 1008,0 46 0,0
26.10.2020 15:00:00 16,1 7,0 15,6 24 13 41 22 NNW 1007,9 46 0,0
26.10.2020 14:00:00 15,5 7,8 17,7 29 16 47 26 NNW 1008,2 51 0,0
26.10.2020 13:00:00 15,2 7,7 15,2 25 14 47 25 NNW 1008,4 60 0,0
26.10.2020 12:00:00 13,9 8,3 12,6 21 11 39 21 NW 1009,4 60 0,0
26.10.2020 11:00:00 11,8 7,9 10,9 21 12 37 20 NW 1009,2 56 0,0
26.10.2020 10:00:00 10,7 7,9 9,9 20 11 39 21 NW 1009,0 58 0,0
26.10.2020 09:00:00 10,7 7,9 9,8 23 13 43 23 NNW 1008,7 60 0,0
26.10.2020 08:00:00 10,9 9,2 10,3 18 10 32 17 NNW 1007,5 60 0,0
26.10.2020 07:00:00 11,7 9,8 10,9 14 7 22 12 NW 1007,4 60 0,0
26.10.2020 06:00:00 11,7 10,4 11,1 5 3 11 6 N 1007,0 58 0,6
26.10.2020 05:00:00 12,2 10,1 11,3 4 2 34 18 ESE 1006,7 17 0,6
26.10.2020 04:00:00 14,6 9,4 14,1 23 12 40 21 W 1007,1 60 0,0
26.10.2020 03:00:00 17,0 13,7 15,5 24 13 39 21 SSW 1005,8 19 0,2
26.10.2020 02:00:00 18,0 14,1 17,0 28 15 49 26 SSE 1005,4 20 0,0
26.10.2020 01:00:00 17,7 12,6 16,8 26 14 55 30 SE 1005,5 54 0,0
26.10.2020 00:00:00 17,8 12,5 16,8 32 17 54 29 SE 1005,9 59 0,0
25.10.2020 23:00:00 17,6 13,1 15,6 19 11 48 26 SE 1007,3 51 0,0

tt = Température de l'air
td = dewpoint
tt 5cm = Température de l'air 5cm
ff = Vitesse du vent
fx = gusts
dd = Direction du vent
ppp = reduced air pressure
vv = visibility
rr = Quantités de précipitations

stations d'obs. à proximité